STARLINK-11280, 61245

Orbit data source: Space-Track

STARLINK-11280, 61245 is a payload satellite owned by SpaceX/Seattle (US) in LEO that was launched on Wed, 25 Sep 2024 UTC via an FALCON 9 launch vehicle from the Air Force Western Test Range (AFWTR). Payload-class satellites include a variety of spacecraft equipped with specific instruments for various scientific and technological missions. These include communications satellites like Starlink; space stations such as the ISS; scientific satellites like the Hubble; Earth observation satellites from companies like Planet Labs, Umbra, and HawkEye 360; GPS; miniature CubeSats for education and research; and military/defense satellites.

Loading next visibility...
Identifier
61245, 2024-175C
Orbit
LEO
Country
Flag of USUS
Related business
Manufacturer
SpaceX/Seattle
Mission
Operational Commercial Communications
Bus & Motor
STARLINK V2MD, Unknown motor
Mass
960 kg wet, ~910 kg dry
Launch date (UTC)
2024-09-25 (1 year ago)
Launch vehicle
FALCON 9
Launch site
Air Force Western Test Range (AFWTR)
Object type
Payload
Rocket body
Debris
Shape & HBR
Box + 2 Pan, 18.1 m
Radar Cross Section
36.964 m², Large (>1 m²)

Expand to show TLE details & history
Last TLE update: 7 hours ago

TLE from 7 hours ago
0 STARLINK-11280
1 61245U 24175C   25289.06594813  .00003549  00000-0  34144-4 0  9990
2 61245  53.1590  49.0753 0001056  81.4496 278.6642 15.69707431 60650
Epoch: 2025-10-16T01:34Z
TLE epoch observation values (Epoch: 2025-10-16T01:34:57.918Z)
Latitude
0.00002°
Longitude
0.50298°
Altitude
360.542 km
Speed
7.694 km/s
True Right ascension
03h 16m 18s
True Declination
0° 00' 00"
Sunlit
Object was in full shadow at epoch
Visualization orbit readout
Latitude
Unknown
Longitude
Unknown
Altitude
Unknown
Speed
Unknown
Apparent Right ascension
Unknown
Apparent Declination
Unknown
Sunlit
N/A
Visualization observer readout
Local Sidereal Time
03:44:46
Azimuth
Unknown
Elevation
Unknown
Doppler factor
Unknown
Orbital elements
Apogee altitude
360.706 km
Perigee altitude
359.283 km
Semi-major axis
6,738.132 km
Eccentricity
0.00011
Inclination
53.159°
RAAN
49.0753°
Arg. of periapsis
81.4496°
True anomaly
278.65224°
Mean anomaly
278.6642°
Eccentric anomaly
278.65822°
Mean motion
3.92404 °/min
Orbital period
91.74 mins
BSTAR
0.000034144
Loading maneuver chart data...
Computing Atmospheric mass density...
Loading historical data...
Loading historical data...
Loading historical data...
Loading historical data...
Loading historical data...
Loading historical data...
Loading historical data...

Documentation

Showing up to 5 results
|